Location: Liberty
(32.6612°N, 88.7589°W)
Time: 18:33:11
(UTC+00:00)

Tiangong - Visible Passes

Search period start: 16 January 2022 00:00
Search period end: 26 January 2022 00:00
Orbit: 383 x 387 km, 41.5° (Epoch: 15 January)

Date Brightness Start Highest point End Pass type
(mag) Time Alt. Az. Time Alt. Az. Time Alt. Az.
16 Jan 3.4 10:54:13 25° E 10:54:13 25° E 10:55:47 10° ESE visible
16 Jan 2.9 12:26:59 10° W 12:29:20 19° SW 12:31:41 10° S visible
17 Jan 1.8 11:30:06 38° SSW 11:30:06 38° SSW 11:33:02 10° SE visible
18 Jan 4.6 10:33:49 10° ESE 10:33:49 10° ESE 10:33:53 10° ESE visible
19 Jan 3.8 11:09:50 12° S 11:09:50 12° S 11:10:14 10° S visible
24 Jan 3.6 01:15:55 10° SW 01:16:54 18° SSW 01:16:54 18° SSW visible
25 Jan 2.8 00:17:10 10° SSW 00:19:36 20° SE 00:20:39 17° ESE visible
